Location: Unspecified
(48.2082°N, 0.0000°E)
Time: 12:48:07
(UTC+00:00)

A-11 Canister half - Pass Details

Date: 25 June 2019
Orbit: 1514 x 1686 km, 47.2° (Epoch: 17 August)

Event Time Altitude Azimuth Distance (km) Brightness Sun altitude
Rises 14:27:41 0° 284° (WNW) 4,847 12.0 52.1°
Reaches altitude 10° 14:30:52 10° 282° (WNW) 3,836 11.7 51.6°
Maximum altitude 14:40:29 69° 202° (SSW) 1,665 10.6 50.2°
Drops below altitude 10° 14:49:44 10° 122° (ESE) 3,702 10.9 48.8°
Sets 14:52:45 0° 120° (ESE) 4,669 11.3 48.3°
